COSMOS 1275 DEB

Satellite information

Favourite Embed

Satellite Type and Status

DEBRISIN ORBIT

Key statistics

Satellite COSMOS 1275 DEB at a glance.

Uptime

16045

Days in orbit

Revolutions

≈ 14.3

Per day

Orbit

LEO

Low Earth Orbit

Inclination

82.9

Latest

Satellite identification and parameters

Extended collection of information and parameters for COSMOS 1275 DEB.

Object identification

Identified? True

Debris? True

Object name: COSMOS 1275 DEB

International designator: 1981-053PK

Object number (NORAD): 42099

Object ID (CCSDS): 42099

Country: COMMONWEALTH OF INDEPENDENT STATES (CIS)

Current information (Y/N): Y

RCS size: SMALL

Orbital parameters

Period: 100.773 minutes

Inclination: 82.857 deg

SMA: 7173.357 km

Apoapsis: 814.133 km

Periapsis: 776.311 km

RAAN: 26.1623 deg

Eccentricy: 0.0026363

Argument of periapsis: 263.8622 deg

Mean anomaly: 95.956 deg

Mean motion: 14.2895689 rev/day

Mean motion (dot): 0.00010355 rev/day2

B* drag term: 0.0040734 1/REarth

Two-line elements (TLE)

Creation date: April 14, 2025, 10:36 p.m.

Reference frame: TEME

Reference center: EARTH

Epoch: April 12, 2025, 12:40 a.m. UTC

TLE line 0: 0 COSMOS 1275 DEB

TLE line 1: 1 42099U 81053PK 25102.02799181 .00010355 00000-0 40734-2 0 9992

TLE line 2: 2 42099 82.8570 26.1623 0026363 263.8622 95.9560 14.28956890474804

Live tracking on map

Real-time ground track for satellite COSMOS 1275 DEB.

In-orbit conjunctions

A list of the most updated potential collisions computed for object COSMOS 1275 DEB.

Target Orbit TCA Probability of collision Miss distance Type
CZ-6A DEB LEO 2025-01-17 21:23:23 0.0001042627 801.0 (m) DEBRIS
FENGYUN 1C DEB SSO 2024-11-15 17:29:03 0.0003624367 334.0 (m) DEBRIS
DELTA 1 DEB SSO 2024-07-02 02:18:56 0.0001882089 104.0 (m) DEBRIS

Associated space launch

Navigation satellite providing location information for the Tsiklon-B navigation system

COSMOS 1275 DEB was lifted into orbit during the mission ‘Kosmos-3M | Parus 27’, on board a Kosmos-3M space rocket.

The launch took place on June 4, 1981, 3:41 p.m. from 132/2.

For more information about the launch, click the button.

Launch to space Kosmos-3M | Parus 27
Kosmos-3M | Parus 27

Agency: N/A

Status: Launch Successful

Launch date: June 4, 1981, 3:41 p.m. UTC

Rocket: Kosmos-3M

Launch pad: 132/2

Location: Plesetsk Cosmodrome, Russian Federation

...

Latest news about this satellite

There are no fresh news available about this satellite. Check back as we update our databases every day.


Newsletter sign-up

Weekly statistics, charts and insights to help you stay on top of the space industry.